Probability
0 0 0 0 0 0 0 0 0 1 8 19 28 33 36 35 35 41 48 55 59 60 61 61 60 59 57 57 59 58 52 47 43 43 42 41 40 41 42 42 41 39 36 34
0 0 0 0 0 0 0 0 0 3 11 21 29 35 39 39 40 43 49 55 58 57 58 58 58 57 55 57 60 61 58 54 51 50 50 49 46 45 46 46 44 41 38 36
0 0 0 0 0 0 1 2 4 9 16 22 30 37 42 44 45 48 52 57 59 58 56 55 55 55 55 57 60 63 62 59 57 57 58 57 54 51 52 52 48 43 40 38
0 0 0 0 1 1 2 5 9 14 18 22 31 39 43 45 48 52 57 61 63 60 55 53 55 57 57 57 60 62 61 58 57 57 58 58 57 56 55 55 52 47 41 38
0 0 0 0 2 4 5 8 13 17 19 22 30 37 43 47 49 53 59 63 62 56 52 53 57 60 60 60 60 60 59 56 55 56 56 55 55 55 55 55 52 49 43 37
1 1 1 1 4 7 8 10 15 19 21 25 30 38 45 50 52 52 55 57 54 48 48 52 57 59 61 61 60 59 57 54 53 55 55 53 51 51 51 51 48 45 41 36
0 0 1 3 6 11 13 15 19 23 27 31 36 43 46 48 50 49 47 46 44 41 43 49 51 52 54 55 57 57 55 52 52 52 50 49 48 47 47 46 43 40 37 35
1 3 5 7 11 17 22 24 26 29 33 37 41 45 46 45 44 41 38 36 36 36 37 41 43 42 42 46 49 51 52 52 52 50 47 45 44 43 43 42 38 35 34 34
6 9 14 15 17 23 27 29 31 33 35 37 40 42 43 41 37 32 30 32 33 31 30 34 37 36 36 39 43 44 46 49 50 50 47 44 41 40 42 41 38 36 36 36
12 15 20 22 24 26 28 29 30 31 33 34 35 38 39 36 31 25 25 29 30 27 27 29 31 32 34 38 41 41 42 43 44 46 46 43 39 38 38 39 38 38 38 37
15 18 21 24 26 28 29 28 26 27 28 28 28 30 31 29 23 20 22 25 26 25 25 25 26 28 32 37 40 41 40 38 38 41 41 38 34 31 30 29 28 29 30 31
16 18 20 22 23 25 25 24 23 23 22 21 21 22 23 21 18 17 18 20 22 22 22 21 21 24 27 31 35 37 37 34 33 35 35 32 28 24 20 15 13 13 15 17
14 15 15 16 18 19 19 18 18 18 16 14 13 15 15 14 14 16 17 18 19 18 17 18 19 20 21 24 28 31 30 28 27 29 29 27 25 22 17 10 6 4 4 4
10 9 9 10 12 12 12 12 12 11 9 8 8 9 10 11 12 14 16 17 16 14 14 16 17 18 19 21 24 25 24 23 23 24 25 24 23 21 17 11 7 5 2 0
4 3 4 5 6 6 7 7 7 5 4 4 4 5 7 9 11 12 13 13 12 12 12 14 15 16 19 21 21 21 20 20 20 21 22 22 21 19 14 10 8 7 4 2
1 1 2 4 6 5 4 4 3 2 1 1 1 3 5 7 9 11 11 11 11 11 12 13 12 12 16 18 18 17 16 15 15 17 18 18 17 13 10 7 6 6 5 4
0 2 4 6 6 5 3 1 1 0 0 0 0 2 4 5 7 9 11 11 10 10 10 10 10 10 12 15 15 13 12 11 12 12 12 12 10 8 6 5 4 4 4 4
1 3 6 6 4 3 1 0 0 0 0 0 1 2 3 3 4 6 8 8 7 6 7 7 7 8 9 12 12 11 9 9 9 9 8 6 5 5 5 5 4 4 4 3
1 2 4 4 3 2 1 0 0 0 1 1 2 3 3 3 3 3 3 3 3 3 4 4 3 4 6 8 8 8 7 6 6 6 6 4 3 4 5 4 3 3 3 3
0 1 2 2 2 2 2 1 0 0 1 2 2 2 2 2 1 1 0 0 1 1 2 2 1 3 4 5 5 5 5 4 4 5 5 4 3 3 4 3 3 3 3 3
0 0 1 1 1 1 1 1 0 0 1 1 1 1 1 1 0 0 0 0 0 0 1 1 1 3 5 5 6 5 4 3 3 4 4 3 3 3 3 3 3 3 4 4
0 0 0 0 0 0 0 0 1 1 1 0 0 1 2 2 1 0 0 0 0 0 0 0 1 3 4 6 6 6 5 4 4 3 3 4 3 3 3 3 3 4 4 4
1 1 0 0 0 0 0 0 1 2 1 1 1 2 2 2 1 0 0 0 0 0 0 0 0 1 2 4 5 5 5 5 4 4 4 4 3 3 3 3 3 3 3 3
2 2 1 0 0 0 0 0 1 1 1 1 1 2 1 1 0 0 0 0 0 0 0 0 0 0 0 1 2 3 3 2 3 3 3 4 3 2 2 2 1 1 1 1
2 2 1 0 0 0 0 0 0 0 0 0 1 1 0 0 0 0 0 0 0 0 0 0 0 0 0 0 0 1 1 0 1 2 2 3 3 1 1 1 0 0 1 1
1 1 1 0 0 0 0 0 0 0 0 0 0 0 0 0 0 0 0 0 0 0 0 0 0 0 0 0 0 0 0 0 0 0 1 1 2 1 0 0 0 0 1 2
0 0 0 0 0 0 0 0 0 0 0 0 0 0 0 0 0 0 0 0 0 0 0 0 0 0 0 0 0 0 0 0 0 0 0 0 1 0 0 0 0 0 1 1
Wind_Speed
9 6 6 8 9 9 11 11 11 8 6 1 1 1 1 2 2 3 4 4 4 4 4 4 4 5 5 5 5 6 6 7 7 7 6 6 6 6 6 6 7 7 6 6
9 9 8 9 9 9 9 9 9 8 4 1 1 1 1 2 2 2 2 3 3 3 3 3 4 4 5 5 5 5 5 6 6 6 6 6 6 6 6 6 6 6 6 6
10 9 10 12 10 10 9 7 8 8 1 2 2 1 1 1 2 2 2 2 2 2 2 2 3 3 4 4 4 4 4 4 5 5 6 6 6 6 6 6 5 6 6 6
7 8 14 3 2 4 5 3 3 1 1 1 0 0 1 2 2 3 3 2 2 1 1 1 2 3 3 4 5 4 4 4 5 5 5 6 6 6 5 5 4 5 5 5
8 11 9 5 3 4 6 4 1 1 1 1 1 2 4 4 4 4 4 3 2 2 2 2 1 1 3 3 4 4 4 4 4 4 4 4 5 5 4 4 4 4 4 4
8 11 10 3 4 1 4 6 3 1 1 1 2 4 2 4 5 4 4 4 3 2 2 2 2 1 1 2 3 3 3 3 3 3 3 4 4 3 3 3 4 4 3 4
11 11 5 4 1 4 8 1 3 1 1 3 3 4 3 3 4 4 3 3 3 2 2 2 2 1 1 1 1 1 1 2 2 3 3 3 3 3 3 3 3 3 3 4
9 12 5 5 1 2 4 5 3 2 2 3 3 2 2 2 3 3 4 3 3 2 2 2 1 0 0 1 0 1 1 1 2 2 2 2 3 3 4 4 4 4 4 4
4 2 4 2 2 3 3 3 4 4 3 2 2 2 2 2 3 3 4 4 3 3 2 2 2 1 1 1 1 2 2 2 2 2 2 2 3 4 4 4 4 4 4 4
3 1 1 2 2 3 4 4 4 4 3 3 3 3 3 3 3 3 3 4 4 3 2 2 2 2 2 2 2 2 2 2 2 3 2 2 2 3 3 3 4 4 4 3
6 3 3 3 3 4 3 3 3 3 3 3 3 4 4 4 4 3 3 4 4 3 3 3 3 3 3 2 2 2 2 2 2 2 2 2 1 0 1 1 2 3 2 2
4 3 5 4 4 4 3 3 3 3 4 4 4 4 4 4 3 3 4 4 4 3 3 3 3 3 3 2 2 2 2 2 2 2 2 2 2 2 5 3 4 3 3 3
5 6 6 6 5 4 4 3 3 4 4 5 5 4 4 3 3 4 4 4 4 4 4 4 4 3 3 2 1 2 2 2 2 2 2 2 2 2 2 3 3 3 2 2
4 5 5 5 5 5 4 4 4 5 5 5 4 4 3 3 4 4 5 4 4 4 4 4 3 3 2 2 2 2 2 2 3 2 2 2 2 2 2 2 2 2 3 3
4 4 5 5 5 5 5 5 5 5 4 4 3 3 3 3 4 4 4 4 4 4 3 3 2 2 2 2 2 2 3 2 2 1 1 2 2 2 2 2 2 2 2 3
5 4 4 4 4 4 4 4 4 4 4 3 2 2 3 3 3 3 3 3 3 3 3 2 2 2 2 2 2 1 1 0 1 2 2 2 2 2 2 2 2 2 2 2
4 4 4 4 4 3 3 3 3 3 2 2 2 2 2 2 2 2 2 2 2 2 2 2 2 2 2 2 2 1 1 1 2 2 2 2 2 2 2 2 2 2 2 3
4 4 5 4 4 3 3 3 2 2 2 2 2 2 2 2 3 3 3 2 2 2 3 3 2 1 1 1 1 2 2 1 1 1 1 1 1 2 2 2 2 3 3 4
3 2 2 2 2 2 3 3 3 3 2 2 2 2 3 2 2 2 2 3 3 3 3 4 3 2 1 1 2 2 1 1 1 1 1 2 2 2 2 2 2 2 2 3
2 2 2 2 1 2 2 2 2 2 2 2 2 2 2 2 2 1 1 2 3 3 3 3 3 2 1 1 2 1 1 1 1 1 2 2 2 2 2 2 2 2 2 2
3 3 3 3 3 3 2 2 2 2 2 2 1 1 1 2 2 2 1 2 3 4 4 3 2 1 1 1 1 0 1 1 2 2 2 2 2 3 2 2 2 3 3 3
3 3 3 3 2 2 2 2 2 2 2 2 1 1 1 2 2 3 3 3 3 3 3 2 2 3 3 3 0 0 1 2 2 2 2 2 3 3 3 3 3 3 3 3
2 2 2 2 2 2 2 2 2 1 2 2 2 3 3 3 2 2 3 3 3 3 3 4 5 5 4 1 1 2 2 2 3 3 3 3 3 3 3 3 2 3 3 3
2 1 1 1 1 1 2 2 3 2 3 3 3 3 3 2 3 3 3 3 4 4 4 5 5 5 3 2 3 3 3 3 3 3 3 3 3 3 3 2 2 2 3 3
2 2 2 2 2 2 2 3 3 4 4 3 4 4 3 3 2 3 3 4 4 3 3 4 4 4 3 3 3 3 3 3 3 2 3 3 3 3 3 2 3 3 3 3
1 1 2 3 3 2 2 2 2 2 2 3 3 3 3 3 3 2 2 3 4 3 3 2 2 2 3 3 3 3 3 3 3 3 3 3 3 3 3 3 4 3 3 4
1 1 1 2 2 2 2 2 2 2 2 2 3 3 2 2 2 3 3 2 3 3 3 2 2 3 3 3 3 3 3 3 3 3 3 3 3 3 4 4 3 3 3 4
Wind_Direction
256 254 235 230 224 222 238 255 258 250 242 256 246 299 31 58 95 113 122 127 133 142 142 157 164 169 177 181 180 185 189 191 191 195 196 198 197 197 196 200 203 202 206 205
236 231 228 235 235 232 238 248 252 249 235 14 55 88 76 76 102 107 108 108 117 135 148 166 171 173 172 176 175 181 190 191 189 193 194 196 196 197 196 200 207 203 209 210
233 221 228 231 227 229 229 237 252 252 238 118 125 83 69 59 61 79 71 79 94 113 146 172 179 180 176 172 172 177 187 189 186 194 197 199 199 194 196 199 200 200 209 213
239 222 234 210 137 229 228 229 258 313 129 188 105 39 88 71 52 45 36 31 36 40 98 141 162 169 179 171 167 175 182 189 190 195 199 197 199 198 197 196 196 202 207 213
241 230 229 183 181 216 220 204 186 232 144 111 55 187 143 71 39 31 22 11 9 9 29 59 81 145 177 179 171 173 178 188 192 190 195 194 196 202 198 195 197 201 200 212
239 247 239 161 110 283 244 209 123 175 183 181 224 240 123 34 9 8 10 4 3 22 41 46 43 52 181 170 167 183 190 190 182 176 184 191 190 200 202 200 199 196 200 214
236 244 242 57 68 215 230 96 51 339 267 252 276 329 5 347 354 1 3 360 6 19 41 40 32 27 197 169 169 180 188 177 170 178 193 197 184 184 198 217 210 203 209 216
237 244 226 62 162 267 3 9 342 314 298 299 324 354 351 353 355 350 350 357 2 6 13 7 358 315 210 197 175 180 177 170 169 181 204 187 183 193 197 208 211 207 216 222
277 312 50 30 352 354 332 323 320 309 307 296 285 297 313 327 332 338 339 339 339 339 340 337 322 296 279 249 220 203 187 189 192 192 195 207 195 205 207 204 215 217 219 220
259 228 282 307 316 315 316 305 303 298 291 285 281 286 297 309 315 322 325 321 322 318 323 331 324 305 288 275 235 217 200 197 195 193 196 194 209 213 218 218 221 228 228 231
251 259 267 264 298 310 314 302 297 296 294 289 284 281 288 291 296 307 307 302 301 306 308 308 310 309 310 303 261 227 218 218 226 221 195 197 184 359 266 31 328 282 270 262
280 302 290 295 303 301 293 281 276 280 288 290 287 284 281 284 288 290 289 288 286 284 282 288 297 305 313 305 276 246 237 233 238 232 196 195 166 123 58 62 51 30 359 326
298 305 299 293 289 288 285 280 279 281 283 286 290 289 284 281 275 276 280 282 282 276 275 280 281 285 289 294 278 244 247 248 248 236 212 203 195 190 166 115 102 84 60 37
294 288 281 282 285 283 279 282 282 282 281 281 285 284 277 277 280 285 288 287 282 276 276 275 274 277 285 279 255 227 234 232 240 226 219 216 210 213 213 196 175 134 103 105
291 281 282 288 285 281 275 270 269 271 278 286 285 282 285 287 290 294 295 291 290 288 286 285 285 301 307 288 264 238 235 235 240 233 220 212 215 209 197 197 173 140 137 127
293 287 289 294 292 283 274 267 268 270 272 273 276 289 299 304 307 308 303 300 292 297 305 306 305 310 308 298 292 274 249 170 236 233 222 213 205 205 197 182 162 134 122 108
293 288 292 295 295 300 302 300 294 289 279 275 298 309 309 311 323 337 339 343 346 341 332 328 320 314 308 299 288 277 252 177 192 212 210 219 205 199 186 161 138 121 101 77
289 287 285 291 297 310 320 320 318 314 313 321 325 317 315 317 328 345 353 355 348 338 342 341 331 319 320 312 299 273 243 202 186 186 168 182 196 185 165 146 135 124 119 113
322 314 305 301 304 322 319 323 330 337 340 339 336 328 322 323 335 342 349 349 346 346 343 341 341 331 335 355 294 232 225 187 167 153 140 149 174 157 138 127 116 115 114 111
356 6 7 3 352 338 323 327 332 336 335 334 334 334 346 348 344 349 359 11 0 347 346 351 344 336 324 327 285 225 184 157 147 151 153 148 137 127 121 114 114 113 113 116
15 21 22 9 4 360 351 338 331 334 336 342 347 355 357 348 355 4 9 28 16 0 352 342 337 340 344 339 271 256 137 138 137 129 116 111 111 113 113 116 117 117 120 119
21 22 23 15 5 359 358 347 341 345 358 10 15 36 47 44 52 53 42 29 23 349 341 15 21 11 341 304 193 126 128 132 129 120 119 120 121 122 118 115 117 118 122 120
26 24 14 1 343 341 352 358 2 12 27 39 49 51 52 45 36 45 49 33 36 9 16 33 19 7 339 338 73 90 94 97 100 103 106 105 106 112 112 116 119 118 117 117
41 31 14 1 348 357 16 25 34 48 57 61 63 68 75 73 67 62 68 64 32 17 40 37 21 7 352 42 58 66 72 82 91 97 101 101 106 111 117 125 117 108 109 109
38 29 33 26 22 30 45 63 75 77 77 71 69 71 73 73 70 64 61 66 62 39 45 49 32 11 28 43 53 62 65 60 62 77 95 99 103 107 107 104 102 102 100 102
57 38 39 32 30 26 32 53 72 77 77 78 72 68 73 77 74 71 63 62 63 59 43 40 45 44 51 54 57 63 75 89 87 78 74 78 84 87 90 94 100 96 100 100
63 69 77 70 64 52 50 62 76 81 78 77 74 63 60 62 59 57 57 55 60 62 55 49 51 53 58 63 66 66 69 71 73 75 79 79 81 88 96 97 92 93 98 101